Powrót do katalogu

STARLINK-31805

AktywnyŁącznośćVLEO
NORAD 59745·PAYLOAD·🇺🇸 United States

Wystrzelony May 13, 2024 z Cape Canaveral Space Force Station

Loading…

Następne Przeloty (najbliższe 24 godziny)

TLE

ŚwieżeSource: CelesTrak SupGP

Epoka: Sep 15, 2026, 03:18 UTC

1 59745C 24090R   26258.13798611 -.00031052  00000+0 -11249-2 0  2583
2 59745  42.9998 193.2346 0001187 275.1498 239.4610 15.27588322    13

Śledź STARLINK-31805 w czasie rzeczywistym z AllMySat

Download on the App Store